Regional Weather Roundup
Issued by NWS Upton, NY

Current Version | Previous Version | Text Only | Print | Product List | Glossary On
Versions: 1 2 3 4 5 6 7 8 9 10 11 12 13 14 15 16 17 18 19 20 21 22 23 24 25 26 27 28 29 30 31 32 33 34 35 36 37 38 39 40 41 42 43 44 45 46 47 48 49 50
000
ASUS41 KOKX 221607
RWROKX

REGIONAL WEATHER ROUNDUP
NATIONAL WEATHER SERVICE NEW YORK NY
1200 PM EDT WED MAR 22 2017

NOTE: "FAIR" INDICATES FEW OR NO CLOUDS BELOW 12,000 FEET WITH NO
SIGNIFICANT WEATHER AND/OR OBSTRUCTIONS TO VISIBILITY.

NYZ071-072-176-178-NJZ106-104-221700-
NEW YORK CITY METRO AREA

CITY           SKY/WX    TMP DP  RH WIND       PRES   REMARKS
Central Park   SUNNY     33   4  29 NW14G32   30.17R WCI  23
Wall St Helipt SUNNY     37   9  31 VRB6      30.17R WCI  32
LaGuardia APRT MOSUNNY   35   7  31 NW31G39   30.14R WCI  22
Kennedy INTL   MOSUNNY   37   7  28 NW29G37   30.14R WCI  25
Breezy Point     N/A     32 N/A N/A NW22G35     N/A  WCI  19
Newark/Liberty MOSUNNY   36   4  26 NW25G37   30.17R WCI  24
Teterboro      SUNNY     34   8  33 NW28G41   30.16R WCI  21
$$

NYZ177-179-078>081-221700-
LONG ISLAND NEW YORK

CITY           SKY/WX    TMP DP  RH WIND       PRES   REMARKS
Jones Beach      N/A     34 N/A N/A NW35G47     N/A  WCI  19
Matinecock PT    N/A     34 N/A N/A N32G40      N/A  WCI  20
Farmingdale    SUNNY     34   5  29 NW22G38   30.10R WCI  22
MacArthur/ISP  MOSUNNY   37  10  32 NW23G33   30.07R WCI  26
Shirley        SUNNY     36   8  31 NW24G39   30.07R WCI  24
Westhampton    SUNNY     36  11  35 NW26G41   30.05R WCI  24
East Hampton     N/A     34   3  27 NW16G35   30.02R WCI  23
Montauk          N/A     36  10  34 NW24G37   30.01R WCI  24
$$

NYZ052-065-067-221700-
HUDSON VALLEY

CITY           SKY/WX    TMP DP  RH WIND       PRES   REMARKS
White Plains   MOSUNNY   31   1  28 NW29G39   30.10R WCI  16
Newburgh       MOSUNNY   27   3  36 NW21G31   30.16R WCI  13
Montgomery     SUNNY     28  -4  25 NW21G31   30.17R WCI  15
Poughkeepsie   SUNNY     28   0  29 W20G32    30.16R WCI  15
Albany         MOSUNNY   23  -2  33 NW22G32   30.20R WCI   8
$$

NJZ001-105-106-008-010-013-015-019>022-104-221700-
NEW JERSEY

CITY           SKY/WX    TMP DP  RH WIND       PRES   REMARKS
Newark/Liberty MOSUNNY   36   4  26 NW25G37   30.17R WCI  24
Teterboro      SUNNY     34   8  33 NW28G41   30.16R WCI  21
Caldwell       SUNNY     32   5  32 NW23G36   30.19R WCI  19
Somerville     SUNNY     34   8  33 NW21G32   30.18R WCI  22
Linden           N/A     35   7  30 NW24G35   30.18R WCI  23
Sussex         MOSUNNY   28   4  35 NW13G22   30.19R WCI  17
Andover          N/A     28   4  35 NW16G28   30.18R WCI  16
Trenton        MOSUNNY   37  11  34 N23G36    30.17R WCI  26
Millville      SUNNY     42   9  25 NW24G39   30.17R
Atlantic City  SUNNY     43   8  23 NW30G38   30.14R
Wrightstown    SUNNY     39  11  30 NW22G33   30.14R WCI  29
Toms River     SUNNY     39   7  26 N20G31    30.15R WCI  29
Belmar         SUNNY    N/A N/A N/A NW31G40   30.13R
$$

PAZ047>061-062-071-221700-
EASTERN PENNSYLVANIA

CITY           SKY/WX    TMP DP  RH WIND       PRES   REMARKS
Philadelphia   MOSUNNY   40   7  25 NW24G32   30.20R WCI  29
Allentown      SUNNY     34   8  33 N22G32    30.22R WCI  22
Scranton       PTSUNNY   23   9  55 NW20G33   30.25R WCI   8
$$

CTZ002-004>006-009-010-012-RIZ004-006-007-MAZ004-011-015-221700-
SOUTHERN NEW ENGLAND
 IN CT

CITY           SKY/WX    TMP DP  RH WIND       PRES   REMARKS
Bradley INTL   MOSUNNY   29   3  33 NW18G35   30.06R WCI  16
Hartford       SUNNY     31   4  31 NW18G32   30.07R WCI  19
Danbury        SUNNY     30   5  34 N22G32    30.10R WCI  17
Wtrbury/Oxford MOSUNNY   27   3  36 NW16G31   30.05S WCI  14
Bridgeport     SUNNY     36  10  34 NW26G37   30.07R WCI  24
Meriden        SUNNY     31  -6  20 NW29G47   30.08R WCI  16
New Haven      SUNNY     32   4  30 NW22G38   30.08R WCI  19
Chester          N/A     30  -4  22 NW23G39   30.01R WCI  17
Groton         SUNNY     36   6  28 NW25G37   29.99R WCI  24
Wilimantic     SUNNY     34   7  32 NW14G32   30.02R WCI  25

 IN RI

CITY           SKY/WX    TMP DP  RH WIND       PRES   REMARKS
Providence     MOSUNNY   37   8  30 NW23G41   29.94R WCI  26
Block Island     N/A     36  11  35 NW18G35   29.95  WCI  26
Westerly       SUNNY     36   7  29 W16G31    29.98R WCI  26
 IN MA

CITY           SKY/WX    TMP DP  RH WIND       PRES   REMARKS
Boston         MOSUNNY   34  12  40 NW23G35   29.93R WCI  22
Worcester      MOSUNNY   26   5  40 W26G37    29.92R WCI  10
Westfield      SUNNY     28   4  35 NW26G39   30.05R WCI  13
Provincetown   MOSUNNY   36  20  52 NW32G40   29.88  WCI  23
Nantucket      MOSUNNY   44  23  43 NW20G26   29.85R
$$

ANZ330-335-338-340-345-350-353-355-221700-
COASTAL MARINE OBSERVATIONS


STATION/POSITION TIME  SKY/WX   TEMP    WIND        PRES    VSBY  WAVE
                                AIR SEA DIR/SP/G                  HT/PER
                 (UTC)          (F)     (DEG/KT/KT) (MB)    (MI)  (FT/S)
NY HARB ENTRANCE 1550            34 42  310/ 29/ 39 1019.2          5/ 5
20 S FIRE ISLAND 1550            35 41  330/ 29/ 33 1017.5          7/ 6
GREAT SOUTH BAY  NOT AVBL
23 SSW MONTAUK P 1450            36 42              1014.4          6/ 6
15 E BARNEGAT LI 1530               43                N/A           7/ 6
HUDSON CANYON    1450            40 45  320/ 27/ 37 1015.8          9/ 7
KINGS POINT      1548            31 38              1020.3
EXECUTION ROCKS  NOT AVBL
CENTRAL LI SOUND 1515            33     300/ 25/ 31   N/A           5/ 4
EASTERN LI SOUND NOT AVBL
ROBBINS REEF     1548            31     320/ 30/ 37 1020.9
$$


>>>>>>>>>>>>>>>>>>>>>>>>>>>> KEY <<<<<<<<<<<<<<<<<<<<<<<<<<<
>                                                          <
>     SKY/WX - Sky Condition/Present Weather               <
>     TMP    - Temperature in Fahrenheit                   <
>     DP     - Dew Point in Fahrenheit                     <
>     RH     - Relative Humidity in Percent                <
>     WIND   - Direction (from) and Speed in MPH           <
>     PRES   - Mean Sea Level Pressure (inches of Hg)      <
>     WCI    - Wind Chill Index                            <
>     VSB    - VISIBILITY IN MILES                         <
>     HX     - HEAT INDEX                                  <
>     TC     - TEMPERATURE IN CELSIUS                      <
>     VRB    - VARIABLE WIND DIRECTION                     <
>                                                          <
>>>>>>>>>>>>>>>>>>>>>>>>>>>> KEY <<<<<<<<<<<<<<<<<<<<<<<<<<<



USA.gov is the U.S. government's official web portal to all federal, state and local government web resources and services.